Weather History for KILM - March, 2014

Change the Weather History Date:

Monday, March 10, 2014

  Actual Average Record
Temperature  
Mean Temperature 60 °F 54 °F  
Max Temperature 77 °F 65 °F 88 °F (1974)
Min Temperature 42 °F 42 °F 21 °F (1932)
Degree Days  
Heating Degree Days 5 12  
Month to date heating degree days 168 129  
Since 1 July heating degree days 2102 2058  
Cooling Degree Days 0 0  
Month to date cooling degree days 0 0  
Year to date cooling degree days 5 5  
Growing Degree Days 10 (Base 50)    
Moisture  
Dew Point 39 °F    
Average Humidity 54    
Maximum Humidity 89    
Minimum Humidity 18    
Precipitation  
Precipitation 0.00 in 0.14 in 5.12 in (1936)
Month to date precipitation 2.18 1.40  
Year to date precipitation 7.64 8.78  
Snow  
Snow 0.00 in 0.00 in - ()
Month to date snowfall 0.0 0.0  
Since 1 July snowfall 1.0 1.5  
Snow Depth 0.00 in    
Sea Level Pressure  
Sea Level Pressure 29.92 in    
Wind  
Wind Speed 5 mph (West)    
Max Wind Speed 16 mph    
Max Gust Speed 21 mph    
Visibility 9 miles    
Events      
T = Trace of Precipitation, MM = Missing Value Source: NWS Daily Summary

Daily Weather History Graph

Daily Weather History Graph

Search for Another Location

Airport or City:

Trip Planner

Search our weather history database for the weather conditions in past years. The results will help you decide how hot, cold, wet, or windy it might be!

Date:

Astronomy

Mar. 10, 2014 Rise Set
Actual Time 7:28 AM EDT 7:15 PM EDT
Civil Twilight 7:03 AM EDT 7:40 PM EDT
Nautical Twilight 6:34 AM EDT 8:09 PM EDT
Astronomical Twilight 6:05 AM EDT 8:38 PM EDT
Moon 2:07 PM EDT (3/10) 3:28 AM EDT (3/10)
Length of Visible Light 12h 36m
Length of Day
11h 46m
Waxing Gibbous, 70% of the Moon is Illuminated
Mar 10
Waxing Gibbous
Mar 16
Full
Mar 23
Last Quarter
Mar 30
New
Apr 7
First Quarter

Hourly Weather History & Observations

Time (EDT) Temp. Dew Point Humidity Pressure Visibility Wind Dir Wind Speed Gust Speed Precip Events Conditions
12:53 AM 46.0 °F 41.0 °F 83% 30.03 in 10.0 mi Calm Calm - N/A   Clear
1:53 AM 44.1 °F 39.9 °F 85% 30.02 in 10.0 mi Calm Calm - N/A   Clear
2:53 AM 45.0 °F 41.0 °F 86% 30.00 in 10.0 mi Calm Calm - N/A   Clear
3:53 AM 44.1 °F 39.9 °F 85% 29.97 in 9.0 mi Calm Calm - N/A   Clear
4:53 AM 43.0 °F 39.9 °F 89% 29.95 in 9.0 mi Calm Calm - N/A   Clear
5:53 AM 43.0 °F 39.0 °F 86% 29.96 in 9.0 mi Calm Calm - N/A   Clear
6:53 AM 48.0 °F 44.1 °F 86% 29.96 in 8.0 mi Calm Calm - N/A   Clear
7:53 AM 44.1 °F 41.0 °F 89% 29.96 in 4.0 mi Calm Calm - N/A   Clear
8:53 AM 52.0 °F 48.0 °F 86% 29.98 in 7.0 mi West 5.8 mph - N/A   Clear
9:53 AM 57.9 °F 48.9 °F 72% 29.98 in 10.0 mi West 5.8 mph - N/A   Clear
10:53 AM 64.9 °F 46.0 °F 50% 29.97 in 10.0 mi NNW 8.1 mph - N/A   Clear
11:53 AM 70.0 °F 37.9 °F 31% 29.96 in 10.0 mi North 8.1 mph - N/A   Clear
12:53 PM 73.0 °F 32.0 °F 22% 29.94 in 10.0 mi NNW 9.2 mph - N/A   Clear
1:53 PM 73.9 °F 28.0 °F 18% 29.91 in 10.0 mi West 8.1 mph - N/A   Clear
2:53 PM 75.0 °F 28.0 °F 18% 29.87 in 10.0 mi WNW 9.2 mph - N/A   Clear
3:53 PM 75.9 °F 28.0 °F 17% 29.85 in 10.0 mi WNW 8.1 mph - N/A   Clear
4:53 PM 75.9 °F 30.0 °F 19% 29.84 in 10.0 mi West 12.7 mph - N/A   Clear
5:53 PM 75.0 °F 30.0 °F 19% 29.83 in 10.0 mi WSW 8.1 mph - N/A   Clear
6:53 PM 70.0 °F 35.1 °F 28% 29.84 in 10.0 mi SW 11.5 mph - N/A   Clear
7:53 PM 63.0 °F 37.0 °F 38% 29.86 in 10.0 mi SW 8.1 mph - N/A   Clear
8:53 PM 57.9 °F 39.0 °F 49% 29.87 in 10.0 mi SSW 4.6 mph - N/A   Clear
9:53 PM 55.9 °F 43.0 °F 62% 29.86 in 10.0 mi SSW 5.8 mph - N/A   Clear
10:53 PM 55.9 °F 46.0 °F 69% 29.87 in 10.0 mi SW 6.9 mph - N/A   Clear
11:53 PM 54.0 °F 46.9 °F 77% 29.85 in 10.0 mi SW 6.9 mph - N/A   Clear